Location: Hylvaty SDH
(49.9612°N, 16.4057°E)
Time: 12:13:59
(UTC+01:00)

Tiros 1 - Pass Details

Date: 03 October 2020
Orbit: 630 x 663 km, 48.4° (Epoch: 28 October)

Event Time Altitude Azimuth Distance (km) Brightness Sun altitude
Rises 17:25:31 0° 275° (W) 2,962 12.0 9.0°
Reaches altitude 10° 17:27:51 10° 273° (W) 2,056 11.4 8.6°
Maximum altitude 17:32:34 67° 191° (S) 712 7.7 7.9°
Drops below altitude 10° 17:37:18 10° 110° (ESE) 2,071 9.3 7.1°
Sets 17:39:40 0° 107° (ESE) 2,986 10.0 6.8°
